Regional Weather Roundup
Issued by NWS

Home | Current Version | Previous Version | Graphics & Text | Print | Product List | Glossary On
Versions: 1 2 3 4 5 6 7 8 9 10 11 12 13 14 15 16 17 18 19 20 21 22 23 24 25 26 27 28 29 30 31 32 33 34 35 36 37 38 39 40 41 42 43 44 45 46 47 48 49 50
000
ASUS43 KOAX 291810
RWRNE

WEATHER ROUNDUP FOR NEBRASKA
NATIONAL WEATHER SERVICE OMAHA NE
100 PM CDT MON MAY 29 2017

NOTES: SATELLITE DATA IS BEING USED TO AUGMENT CLOUD COVER ABOVE
       12000 FEET.
       "FAIR" INDICATES FEW OR NO CLOUDS BELOW 12,000 FEET WITH NO
       SIGNIFICANT WEATHER AND/OR OBSTRUCTIONS TO VISIBILITY.

  * THESE STATIONS DO NOT REPORT WEATHER SUCH AS RAIN...SNOW OR FOG.

NEZ001>004-019>022-054>056-291900-
NEBRASKA PANHANDLE

CITY           SKY/WX    TMP DP  RH WIND       PRES   REMARKS
SCOTTSBLUFF    MOSUNNY   70  36  28 NW16G23   30.19F
6HR MIN TEMP:  45; 6HR MAX TEMP:  71;

ALLIANCE       MOSUNNY   67  37  33 NW20G28   30.17F
6HR MIN TEMP:  48; 6HR MAX TEMP:  67;

CHADRON        SUNNY     66  37  34 NW14G28   30.16S
6HR MIN TEMP:  45; 6HR MAX TEMP:  67;

GORDON         FAIR      64  36  36 W7        30.17S
6HR MIN TEMP:  44; 6HR MAX TEMP:  64;

KIMBALL        PTSUNNY   66  37  34 N10G20    30.23F
SIDNEY         SUNNY     68  41  37 N17       30.21F
6HR MIN TEMP:  46; 6HR MAX TEMP:  68;

$$

NEZ057>060-069>072-079>082-291900-
SOUTHWEST NEBRASKA

CITY           SKY/WX    TMP DP  RH WIND       PRES   REMARKS
NORTH PLATTE   SUNNY     71  44  37 NW17G25   30.13F
6HR MIN TEMP:  45; 6HR MAX TEMP:  71;

IMPERIAL       MOSUNNY   72  38  29 N17G26    30.16F
6HR MIN TEMP:  50; 6HR MAX TEMP:  73;

LEXINGTON      SUNNY     73  35  25 NW16G23   30.12S
MCCOOK         SUNNY     76  40  27 NW22G30   30.13S
6HR MIN TEMP:  49; 6HR MAX TEMP:  77;

OGALLALA       MOSUNNY   71  40  32 NW10G22   30.17S
$$

NEZ005>010-023>029-035>040-094-291900-
NORTH CENTRAL NEBRASKA

CITY           SKY/WX    TMP DP  RH WIND       PRES   REMARKS
VALENTINE      PTSUNNY   64  35  34 NW13G23   30.14R
6HR MIN TEMP:  47; 6HR MAX TEMP:  67;

AINSWORTH      PTSUNNY   64  41  43 NW18G26   30.14S
BROKEN BOW     SUNNY     70  37  29 N16G24    30.12S
6HR MIN TEMP:  53; 6HR MAX TEMP:  70;

O`NEILL        MOSUNNY   66  36  32 NW23G32   30.09S
ORD            SUNNY     68  39  34 NW16G29   30.09S
6HR MIN TEMP:  50; 6HR MAX TEMP:  69;

THEDFORD       SUNNY     67  38  34 NW16G22   30.15F
$$

NEZ041-046>049-061>064-073>077-083>087-291900-
SOUTH CENTRAL NEBRASKA

CITY           SKY/WX    TMP DP  RH WIND       PRES   REMARKS
GRAND ISLAND   MOSUNNY   73  41  31 NW20G25   30.09R
6HR MIN TEMP:  52; 6HR MAX TEMP:  73;

AURORA         PTSUNNY   71  39  30 NW14G22   30.08S
HASTINGS       SUNNY     73  40  30 NW10G25   30.10R
6HR MIN TEMP:  54; 6HR MAX TEMP:  73;

HEBRON         SUNNY     76  39  26 NW9       30.06S
HOLDREGE       PTSUNNY   71  38  30 NW12G18   30.11S
KEARNEY *      SUNNY     72  39  30 NW14      30.11S
YORK           MOSUNNY   73  39  29 NW20G25   30.07R
$$

NEZ011>018-030>034-042>045-291900-
NORTHEAST NEBRASKA

CITY           SKY/WX    TMP DP  RH WIND       PRES   REMARKS
NORFOLK        MOSUNNY   68  37  32 NW25G33   30.04S
6HR MIN TEMP:  52; 6HR MAX TEMP:  69;

ALBION         SUNNY     68  40  36 NW21G31   30.07F
BLAIR          MOSUNNY   71  39  31 NW20G26   30.02S
FREMONT        SUNNY     73  40  30 NW21G30   30.04R
TEKAMAH        SUNNY     74  36  25 W23G38    30.01R
6HR MIN TEMP:  56; 6HR MAX TEMP:  74;

WAYNE          PTSUNNY   68  41  37 NW21G36   30.02F
$$

NEZ050>053-065>068-078-088>093-291900-
SOUTHEAST NEBRASKA

CITY           SKY/WX    TMP DP  RH WIND       PRES   REMARKS
LINCOLN        PTSUNNY   73  44  35 N14       30.05S
6HR MIN TEMP:  58; 6HR MAX TEMP:  76;

OMAHA EPPLEY   MOSUNNY   75  41  29 NW23G30   30.01R
6HR MIN TEMP:  57; 6HR MAX TEMP:  75;

BEATRICE       SUNNY     76  43  31 NW18G25   30.04S
NEBRASKA CITY  MOSUNNY   76  31  19 NW13G22   30.02S
PLATTSMOUTH    PTSUNNY   75  43  31 W14       30.02S
$$

NEZ044-045-051>053-067-291900-
OMAHA AREA

CITY           SKY/WX    TMP DP  RH WIND       PRES   REMARKS
OMAHA EPPLEY   MOSUNNY   75  41  29 NW23G30   30.01R
6HR MIN TEMP:  57; 6HR MAX TEMP:  75;

BLAIR          MOSUNNY   71  39  31 NW20G26   30.02S
FREMONT        SUNNY     73  40  30 NW21G30   30.04R
MILLARD        MOSUNNY   74  45  35 NW15G23   30.03R
OFFUTT AFB     MOSUNNY   73  42  31 NW20      30.01S
PLATTSMOUTH    PTSUNNY   75  43  31 W14       30.02S
WAHOO          FAIR      74  35  24 NW15G26   30.04R
$$




USA.gov is the U.S. government's official web portal to all federal, state and local government web resources and services.